レモン彗星

C/2018 U1 ( Lemmon )

English version
Home page
Updated on May 29, 2022

---------------------------------------------------------------------

・ プロフィール

発見日 2018年10月27日
発見光度 20.0等
発見者 R. A. Kowalski (Mount Lemmon Survey)

・ 写真集

・ 軌道要素

Epoch 2022 Jan. 21.0 TT = JDT 2459600.5
T 2021 Nov. 3.10858 TT                                  Rudenko
q   4.9929798            (2000.0)            P               Q
z  -0.0002850      Peri.  180.46765     -0.25318197     -0.30192968
 +/-0.0000006      Node    75.48052     -0.88447838     +0.45712121
e   1.0014229      Incl.  108.30136     -0.39191438     -0.83658751
From 2226 observations 2018 Oct. 27-2022 Feb. 20, mean residual 0".5.

・ 星図

・ 光度変化

        m1 = 4.5 + 5 logΔ + 10.0 log r

---------------------------------------------------------------------

軌道要素はM.P.E.C. 2022-D36に掲載されたものです。
星図はステラナビゲータ Ver.10 (アストロアーツ) で作成したものです。
光度グラフはComet for Windowsで作成したものです。

---------------------------------------------------------------------

Copyright(C) Seiichi Yoshida (comet@aerith.net). All rights reserved.